[[{"header":{"parameterUnit":"m.s-1","parameterCategory":1,"la1":30.2991,"la2":30.254,"lo1":-89.0895,"lo2":-89.0444,"dy":0.0017,"dx":0.0017,"nx":28,"ny":28,"refTime":"2024-05-02T03:00:00:Z","depth":0,"parameterNumber":2,"parameterNumberName":"U-component_of_WINDS"},"data":[0,0,0,0,0,0,0,0,0,0,0,0,0,0,0,0,0,0,0,0,0,0,0,0,0,0,0,0,0,0,0,0,0,0,0,0,0,0,0,0,0,0,0,0,0,0,0,0,0,0,0,0,0,0,0,0,0,0,-2.9288,-2.9289,0,-2.9394,-2.9395,-2.9397,-2.9391,-2.9389,-2.9388,-2.9386,-2.9495,-2.9499,-2.9504,0,0,0,0,0,0,0,0,0,0,0,0,0,-2.908,-2.9084,-2.9288,-2.9289,-2.929,-2.9394,-2.9396,-2.9397,-2.9391,-2.9389,-2.9387,-2.9385,-2.9494,-2.9499,-2.9504,0,0,0,0,0,0,0,0,0,0,0,0,0,-2.9177,-2.9085,-2.9288,-2.93,-2.9302,-2.9394,-2.9396,-2.9397,-2.9391,-2.9389,-2.9387,-2.9385,-2.9492,-2.9498,-2.9505,-2.9591,0,0,-2.9525,-2.9528,0,0,0,0,0,0,0,0,-2.9171,-2.9185,-2.9297,-2.9299,-2.9302,-2.9377,-2.9362,-2.9462,-2.9392,-2.9357,-2.9386,-2.9383,-2.9458,-2.9467,-2.9492,-2.9596,-2.9601,-2.9525,-2.9529,-2.9532,-2.9534,0,0,0,0,0,0,0,-2.9165,-2.918,-2.933,-2.9298,-2.9302,-2.93,-2.9312,-2.9381,-2.9419,-2.936,-2.936,-2.9373,-2.9459,-2.9486,-2.9494,-2.9603,-2.9525,-2.9531,-2.9535,-2.9537,-2.9784,-2.9787,0,0,0,0,0,0,-2.9155,-2.9174,-2.9326,-2.9333,-2.923,-2.9306,-2.9319,-2.9355,-2.9418,-2.9426,-2.9375,-2.9372,-2.9476,-2.9487,-2.9498,-2.9604,-2.9532,-2.9538,-2.9542,-2.9781,-2.9785,-2.9788,0,0,0,0,0,0,-2.9151,-2.9169,-2.9322,-2.9254,-2.9273,-2.9312,-2.9353,-2.9358,-2.9385,-2.9429,-2.9436,-2.9395,-2.9474,-2.9489,-2.9568,-2.9607,-2.9541,-2.9547,-2.9778,-2.9782,-2.9786,-2.9815,0,0,0,0,0,0,-2.9145,-2.9167,-2.92,-2.9255,-2.9277,-2.939,-2.9356,-2.9362,-2.9397,-2.9394,-2.945,-2.9457,-2.9474,-2.9559,-2.9575,-2.9615,-2.9552,-2.9775,-2.978,-2.9785,-2.9811,-2.9819,-2.9827,0,0,0,0,0,-2.9138,-2.9204,-2.9202,-2.922,-2.9319,-2.9392,-2.9405,-2.9422,-2.94,-2.9433,-2.9462,-2.9456,-2.9601,-2.9567,-2.9585,-2.9628,-2.9773,-2.9779,-2.9784,-2.9807,-2.9818,-2.9827,0,0,0,0,0,0,-2.9153,-2.9211,-2.9209,-2.9295,-2.9339,-2.9391,-2.9434,-2.9433,-2.9484,-2.948,-2.9499,-2.9512,-2.9591,-2.9618,-2.9579,-2.9715,-2.9684,-2.9694,-2.9695,-2.9705,-2.9713,-2.9705,-2.9557,0,0,0,0,0,-2.9166,-2.9221,-2.9269,-2.934,-2.9362,-2.9395,-2.9427,-2.9437,-2.9483,-2.9501,-2.9535,-2.958,-2.9636,-2.9672,-2.9726,-2.9815,-2.9827,-2.9854,-2.9862,-2.9868,-2.9876,-2.9925,-2.9938,-2.9807,-2.9807,-2.9807,0,0,-2.9194,-2.9233,-2.9266,-2.9344,-2.9379,-2.9436,-2.941,-2.9471,-2.9513,-2.951,-2.9587,-2.9614,-2.9666,-2.975,-2.9789,-2.9775,-2.9915,-2.9876,-2.9881,-2.9885,-2.9933,-2.9945,-2.9956,-2.9811,-2.981,-2.981,0,0,-2.9274,-2.9309,-2.9372,-2.9408,-2.9461,-2.9483,-2.9498,-2.9551,-2.9569,-2.9646,-2.9646,-2.9697,-2.9792,-2.9829,-2.986,-2.9956,-2.9952,-2.9973,-3.0015,-3.0063,-3.0073,-3.0082,-3.0116,-3.0128,-2.9981,-2.9981,-2.9981,0,-2.9302,-2.9387,-2.9405,-2.9466,-2.9501,-2.9502,-2.9566,-2.96,-2.9668,-2.9692,-2.9675,-2.9796,-2.9831,-2.9924,-2.9948,-2.9973,-2.9991,-2.9966,-3.007,-3.008,-3.0089,-3.0121,-3.0134,-2.9983,-2.9983,-2.9983,-2.9983,0,-2.9419,-2.9478,-2.9523,-2.9589,-2.9628,-2.9691,-2.9719,-2.9757,-2.9764,-2.9787,-2.9867,-2.9909,-2.9971,-2.9995,-3.0002,-3.0089,-3.0079,-3.0066,-3.0035,-3.0103,-3.0134,-3.0146,-2.9986,-2.9986,-2.9985,-2.9984,0,0,-2.9509,-2.9586,-2.9602,-2.9632,-2.9692,-2.9738,-2.9801,-2.9862,-2.9895,-2.9943,-2.9996,-3.0078,-3.0067,-3.0102,-3.0114,-3.0156,-3.0229,-3.0138,-3.014,-3.0153,-3.0329,-3.0337,-3.0351,-3.0228,-3.023,-3.0232,-3.0324,0,-2.9595,-2.9706,-2.9725,-2.9823,-2.9878,-2.9881,-2.9936,-2.9979,-3.0003,-3.0053,-3.008,-3.0137,-3.0118,-3.014,-3.0182,-3.0211,-3.0265,-3.0205,-3.0278,-3.028,-3.0263,-3.0367,-3.0376,-3.0461,-3.0336,-3.0338,-3.034,0,-2.9709,-2.9759,-2.9863,-2.9916,-2.994,-2.9989,-3.0047,-3.0095,-3.0145,-3.0159,-3.02,-3.0207,-3.0273,-3.024,-3.0332,-3.0291,-3.0322,-3.0341,-3.0345,-3.0351,-3.0313,-3.0376,-3.0488,-3.05,-3.0359,-3.0358,-3.0356,0,-2.9764,-2.9858,-2.9932,-2.9958,-3.0022,-3.0057,-3.0085,-3.0132,-3.0168,-3.0219,-3.0243,-3.0301,-3.0333,-3.0379,-3.0401,-3.0375,-3.0492,-3.046,-3.0505,-3.0505,-3.0529,-3.0527,-3.0646,-3.055,-3.055,-3.055,-3.055,0,-2.9857,-2.9919,-2.9958,-3.0003,-3.0074,-3.0096,-3.0166,-3.0194,-3.0236,-3.0287,-3.0294,-3.0342,-3.0369,-3.0422,-3.044,-3.0513,-3.0528,-3.0542,-3.0545,-3.054,-3.0539,-3.056,-3.0554,-3.0553,-3.0553,-3.0552,-3.0551,0,-2.9929,-2.9958,-3.0039,-3.0093,-3.0108,-3.0158,-3.0205,-3.0249,-3.0274,-3.0339,-3.0355,-3.0394,-3.0456,-3.0483,-3.056,-3.0573,-3.0656,-3.0656,-3.0639,-3.064,-3.0684,-3.0679,-3.0821,-3.084,-3.0732,-3.0733,-3.0734,0,-2.9986,-3.0035,-3.0094,-3.0129,-3.0159,-3.0215,-3.0252,-3.0275,-3.0314,-3.0374,-3.0412,-3.0474,-3.0525,-3.0624,-3.0659,-3.0718,-3.0719,-3.0765,-3.0728,-3.0722,-3.0719,-3.0716,-3.0721,-3.0771,-3.0772,-3.0773,-3.0774,0,-3.0083,-3.0095,-3.0148,-3.0207,-3.0251,-3.0298,-3.0344,-3.0372,-3.0403,-3.0446,-3.051,-3.055,-3.0628,-3.069,-3.0752,-3.0781,-3.0783,-3.0786,-3.0799,-3.0794,-3.0781,-3.0788,-3.0656,-3.0782,-3.0781,-3.078,-3.078,-3.078,-3.015,-3.0193,-3.0242,-3.0301,-3.0339,-3.0382,-3.0426,-3.0457,-3.051,-3.0576,-3.0587,-3.0655,-3.0704,-3.0787,-3.0819,-3.0873,-3.0862,-3.0881,-3.0886,-3.089,-3.0893,-3.0774,-3.0884,-3.0884,-3.0884,-3.0884,-3.0884,0,-3.0247,-3.0279,-3.0333,-3.0398,-3.0444,-3.0443,-3.0494,-3.0533,-3.0593,-3.0638,-3.0689,-3.0762,-3.0823,-3.0863,-3.0925,-3.096,-3.0962,-3.0975,-3.0972,-3.0979,-3.0899,-3.0881,-3.0972,-3.0972,-3.0972,-3.0972,-3.0972,-3.0972,-3.0303,-3.0376,-3.0394,-3.0487,-3.0519,-3.0585,-3.0615,-3.0655,-3.0691,-3.0773,-3.0824,-3.085,-3.0894,-3.0958,-3.1014,-3.1024,-3.1046,-3.106,-3.1069,-3.0994,-3.0985,-3.0976,-3.0959,-3.1064,-3.1065,-3.1145,-3.1145,-3.1146]},{"header":{"parameterUnit":"m.s-1","parameterCategory":1,"la1":30.2991,"la2":30.254,"lo1":-89.0895,"lo2":-89.0444,"dy":0.0017,"dx":0.0017,"nx":28,"ny":28,"refTime":"2024-05-02T03:00:00:Z","depth":0,"parameterNumber":3,"parameterNumberName":"V-component_of_WINDS"},"data":[0,0,0,0,0,0,0,0,0,0,0,0,0,0,0,0,0,0,0,0,0,0,0,0,0,0,0,0,0,0,0,0,0,0,0,0,0,0,0,0,0,0,0,0,0,0,0,0,0,0,0,0,0,0,0,0,0,0,2.3087,2.3087,0,2.3061,2.306,2.306,2.3007,2.3006,2.3005,2.3004,2.2977,2.2977,2.2977,0,0,0,0,0,0,0,0,0,0,0,0,0,2.3092,2.3092,2.3087,2.3086,2.3086,2.3061,2.306,2.306,2.3007,2.3006,2.3005,2.3004,2.2977,2.2977,2.2977,0,0,0,0,0,0,0,0,0,0,0,0,0,2.308,2.3092,2.3087,2.3057,2.3054,2.3061,2.306,2.306,2.3008,2.3006,2.3004,2.3003,2.2977,2.2977,2.2977,2.3011,0,0,2.2979,2.2979,0,0,0,0,0,0,0,0,2.3081,2.308,2.3062,2.3059,2.3056,2.3036,2.3052,2.3044,2.3008,2.3025,2.3004,2.3002,2.2998,2.2996,2.2995,2.301,2.3009,2.2979,2.2979,2.2979,2.2979,0,0,0,0,0,0,0,2.3082,2.3081,2.3076,2.3061,2.3058,2.3045,2.3041,2.305,2.3021,2.3024,2.302,2.3017,2.2996,2.2995,2.2994,2.3008,2.2979,2.2979,2.2979,2.2979,2.3052,2.3053,0,0,0,0,0,0,2.3087,2.3082,2.3077,2.3076,2.3065,2.3046,2.3042,2.3044,2.302,2.3015,2.3019,2.3015,2.2995,2.2993,2.2993,2.3031,2.2979,2.2979,2.298,2.305,2.3052,2.3054,0,0,0,0,0,0,2.3087,2.3087,2.3078,2.3078,2.3076,2.3048,2.305,2.3044,2.3043,2.3017,2.3011,2.3023,2.2993,2.2992,2.3007,2.303,2.298,2.298,2.3048,2.305,2.3053,2.3109,0,0,0,0,0,0,2.3087,2.3087,2.31,2.3078,2.3076,2.3094,2.3051,2.3045,2.3043,2.3038,2.3019,2.3014,2.2992,2.3007,2.3008,2.3029,2.298,2.3046,2.3049,2.3052,2.3105,2.3113,2.312,0,0,0,0,0,2.3088,2.3116,2.3101,2.31,2.3091,2.3095,2.3093,2.3067,2.3045,2.3058,2.3041,2.3015,2.3027,2.3009,2.3009,2.3031,2.3044,2.3048,2.3052,2.3102,2.3111,2.312,0,0,0,0,0,0,2.314,2.3113,2.3095,2.3117,2.3109,2.3086,2.3101,2.3078,2.3076,2.3071,2.3039,2.3035,2.3055,2.3044,2.3025,2.3064,2.3032,2.3036,2.3069,2.3079,2.3086,2.3088,2.2981,0,0,0,0,0,2.3155,2.316,2.3136,2.3158,2.3155,2.3129,2.3129,2.311,2.31,2.3096,2.3081,2.3072,2.3074,2.3076,2.3076,2.3103,2.3099,2.3119,2.3126,2.3133,2.3137,2.3151,2.316,2.3066,2.3066,2.3066,0,0,2.3184,2.317,2.3175,2.3168,2.3159,2.3166,2.3126,2.3135,2.314,2.3097,2.3111,2.31,2.3088,2.311,2.3119,2.3102,2.3162,2.3138,2.3143,2.3143,2.3156,2.3165,2.3173,2.3069,2.3068,2.3068,0,0,2.3241,2.323,2.3248,2.324,2.3228,2.3211,2.3215,2.3196,2.3187,2.32,2.3169,2.3174,2.3178,2.3171,2.3168,2.3225,2.32,2.3226,2.3265,2.328,2.3287,2.3293,2.3314,2.3322,2.323,2.323,2.323,0,2.3279,2.3288,2.326,2.3271,2.3269,2.3232,2.325,2.3244,2.3232,2.3232,2.3214,2.3218,2.3208,2.3228,2.3242,2.3241,2.3245,2.3227,2.3288,2.3294,2.33,2.3319,2.3327,2.3233,2.3232,2.3232,2.3232,0,2.3336,2.3343,2.3358,2.3348,2.3348,2.3363,2.3338,2.3341,2.3322,2.3307,2.3322,2.3308,2.3305,2.3309,2.329,2.3327,2.3317,2.3294,2.3261,2.3313,2.333,2.3337,2.3237,2.3236,2.3235,2.3235,0,0,2.3424,2.3399,2.3406,2.3401,2.3385,2.339,2.3404,2.3401,2.3405,2.3399,2.3409,2.3414,2.3393,2.339,2.337,2.3384,2.343,2.3359,2.3358,2.3373,2.3471,2.3488,2.3497,2.3414,2.3415,2.3417,2.3472,0,2.3477,2.3499,2.3475,2.3501,2.3507,2.3473,2.3485,2.3477,2.3463,2.3467,2.3452,2.3456,2.3428,2.3426,2.3437,2.3422,2.3449,2.3418,2.3424,2.3425,2.3428,2.3506,2.3525,2.3577,2.3478,2.348,2.348,0,2.3542,2.354,2.3567,2.3551,2.3552,2.3563,2.356,2.3564,2.3554,2.3544,2.3541,2.3518,2.353,2.3499,2.3516,2.3495,2.3496,2.3489,2.3491,2.349,2.3456,2.3508,2.3594,2.3602,2.3491,2.349,2.3489,0,2.3605,2.3608,2.3625,2.3622,2.3603,2.3612,2.3604,2.3593,2.3594,2.3591,2.3591,2.359,2.3589,2.3589,2.3567,2.3546,2.3587,2.3553,2.3579,2.3579,2.3589,2.3588,2.3676,2.3589,2.3589,2.3589,2.3589,0,2.3667,2.3685,2.3653,2.3663,2.3683,2.3656,2.3676,2.3665,2.3656,2.3664,2.3634,2.3642,2.3612,2.3617,2.3599,2.3617,2.3616,2.3608,2.3604,2.3611,2.3612,2.3612,2.3608,2.3591,2.3591,2.359,2.359,0,2.374,2.3719,2.3735,2.3717,2.3712,2.3728,2.3712,2.3721,2.3706,2.3717,2.3718,2.3694,2.3699,2.3677,2.3677,2.3666,2.3692,2.3681,2.3695,2.3692,2.3719,2.3717,2.3809,2.382,2.3727,2.3728,2.3728,0,2.3781,2.3795,2.3778,2.3781,2.3775,2.3781,2.3782,2.3756,2.3758,2.3749,2.3759,2.3761,2.3762,2.3771,2.3755,2.3755,2.3744,2.3776,2.3744,2.3752,2.3745,2.3745,2.3746,2.3783,2.3784,2.3785,2.3786,0,2.3857,2.3846,2.3849,2.3848,2.385,2.3848,2.3843,2.3848,2.382,2.3824,2.3828,2.3829,2.383,2.3833,2.3831,2.3823,2.38,2.3796,2.3802,2.381,2.3819,2.3815,2.3714,2.3794,2.3793,2.3793,2.3792,2.3792,2.3916,2.3926,2.3916,2.392,2.3915,2.3912,2.392,2.3906,2.391,2.3909,2.3893,2.3902,2.3893,2.3887,2.3882,2.3888,2.3873,2.3881,2.3884,2.3886,2.3891,2.3818,2.3887,2.3887,2.3887,2.3887,2.3886,0,2.3991,2.3983,2.3986,2.3982,2.3985,2.3964,2.3958,2.3963,2.397,2.3964,2.3965,2.3972,2.3975,2.3959,2.396,2.3968,2.3958,2.3969,2.3968,2.3967,2.3905,2.3899,2.3978,2.3978,2.3978,2.3978,2.3978,2.3978,2.403,2.4047,2.4035,2.405,2.4042,2.4049,2.4048,2.4046,2.4041,2.4049,2.4052,2.4041,2.4032,2.4032,2.4034,2.4029,2.4031,2.4047,2.4039,2.398,2.3972,2.3963,2.3958,2.4047,2.4048,2.4101,2.4101,2.4102]}]]